カタログに戻る

SDA_1669

運用中軍事PO
NORAD 65979·PAYLOAD·🇺🇸 United States

打ち上げ Oct 15, 2025 から Vandenberg Space Force Base

Loading…

次のパス (今後24時間)

TLE

最新Source: Space-Track

元期: Sep 14, 2026, 15:49 UTC

1 65979U 25230F   26257.65945483  .00000153  00000-0  13255-3 0  9992
2 65979  81.3000 128.9322 0003342 342.8403  17.2639 13.81708526 46181

AllMySatでSDA_1669をリアルタイム追跡

Download on the App Store